Simultaneous Nadir Overpasses (SNOs) Predictions

Prediction of SNOs between AQUA and NOAA-19 Satellite Orbit:

Table of predicted SNOs for the next 14.0 days since TLE Epoch: 12/24/2011
Index Date Time (AQUA) AQUA Lat,Lon NOAA-19 Lat,Lon Distance(km) Time Diff (sec)
1 12/25/2011 19:15:21 -49.53, -75.33 -49.53, -75.32 0.88 10
2 12/27/2011 23:13:21 38.44, 42.01 38.44, 42.01 0.17 69
3 12/30/2011 04:42:23 -55.72, 145.40 -55.72, 145.39 0.83 43
4 01/01/2012 09:26:04 -58.29, 75.77 -58.29, 75.76 0.76 68
5 01/03/2012 13:23:09 50.75,-166.84 50.75,-166.86 1.31 3




NCC Satellite Simultaneous Nadir Overpasses (SNOs) Prediction Service
